HULIANWANG DIGUI-158

Last updated on Sun Apr 12 2026 00:02:06 GMT+0000 (Coordinated Universal Time)

1 68132U 26047D 26101.34379962 -.00000098 00000+0 44815-4 0 9995 2 68132 50.0060 299.5207 0000589 300.9468 59.1365 13.72212733 4115
UTC large
Height (km)
Speed (km/s)
/
Latitude / Longitude
Inclination (degrees)
Orbital Period (minutes)
Azimuth
Elevation
Range (km)
Doppler Factor

Next 0 passes for location: London (51.5072 / 0.1276)

Sorry there are no passes over London.
HULIANWANG DIGUI-158